Location: Ajisawe
(8.4333°N, 4.3833°E)
Time: 06:31:29
(UTC+00:00)

A-11 Canister half - Pass Details

Date: 27 April 2021
Orbit: 1514 x 1685 km, 47.2° (Epoch: 12 May)

Event Time Altitude Azimuth Distance (km) Brightness Sun altitude
Exits shadow 04:19:19 - 302° (WNW) 4,802 11.2 -17.2°
Reaches altitude 10° 04:22:30 10° 295° (WNW) 3,908 10.7 -16.5°
Maximum altitude 04:31:27 37° 232° (SW) 2,395 9.5 -14.4°
Drops below altitude 10° 04:40:33 10° 168° (SSE) 3,941 11.1 -12.2°
Sets 04:44:05 0° 160° (SSE) 4,922 11.7 -11.4°
